UAE708 FMMI-FSIA

Flight info

Callsign UAE708
Flight time N/A
Altitude 35000
Route SEMEM1E GATLA UL441 MIROV/N0483F360 UL441 NORSI/N0484F370 DCT IMPOX IMPOX1R
Aircraft B77W/H-SDE1E2E3FGHIJ2J3J4J5M1RWXY/LB1D1

Departure

Time 2026-04-23 04:10
Airport Ivato International Airport (FMMI)

Arrival

Time N/A
Airport Seychelles International Airport (FSIA)
Time Latitude Longitude Altitude Speed Heading
2026-04-23 03:32 -18.79980 47.48055 4171 ft 0 kts 175°
2026-04-23 04:00 -18.79973 47.48055 4170 ft 4 kts 176°
2026-04-23 04:00 -18.79946 47.48055 4170 ft 4 kts 182°
2026-04-23 04:00 -18.79920 47.48053 4170 ft 4 kts 154°
2026-04-23 04:01 -18.79903 47.48040 4170 ft 4 kts 117°
2026-04-23 04:01 -18.79897 47.48014 4171 ft 4 kts 96°
2026-04-23 04:01 -18.79896 47.48006 4170 ft 0 kts 99°
2026-04-23 04:04 -18.79896 47.48007 4170 ft 1 kts 99°
2026-04-23 04:04 -18.79900 47.48030 4170 ft 7 kts 99°
2026-04-23 04:04 -18.79890 47.48095 4170 ft 4 kts 37°
2026-04-23 04:05 -18.79865 47.48105 4170 ft 4 kts 15°
2026-04-23 04:05 -18.79837 47.48111 4170 ft 4 kts 10°
2026-04-23 04:05 -18.79799 47.48118 4169 ft 9 kts
2026-04-23 04:05 -18.79738 47.48109 4168 ft 10 kts 319°
2026-04-23 04:06 -18.79716 47.48043 4169 ft 10 kts 278°
2026-04-23 04:06 -18.79704 47.47959 4168 ft 19 kts 278°
2026-04-23 04:06 -18.79677 47.47774 4168 ft 27 kts 279°
2026-04-23 04:06 -18.79648 47.47579 4168 ft 27 kts 279°
2026-04-23 04:07 -18.79619 47.47384 4167 ft 27 kts 279°
2026-04-23 04:07 -18.79589 47.47188 4166 ft 27 kts 279°
2026-04-23 04:07 -18.79560 47.46993 4165 ft 27 kts 279°
2026-04-23 04:07 -18.79530 47.46798 4166 ft 27 kts 279°
2026-04-23 04:08 -18.79503 47.46619 4165 ft 19 kts 279°
2026-04-23 04:08 -18.79472 47.46526 4166 ft 9 kts 310°
2026-04-23 04:08 -18.79450 47.46468 4166 ft 9 kts 244°
2026-04-23 04:08 -18.79466 47.46460 4166 ft 2 kts 185°
2026-04-23 04:09 -18.79477 47.46470 4166 ft 2 kts 122°
2026-04-23 04:09 -18.79480 47.46488 4166 ft 3 kts 99°
2026-04-23 04:09 -18.79501 47.46610 4166 ft 40 kts 99°
2026-04-23 04:09 -18.79548 47.46930 4165 ft 93 kts 98°
2026-04-23 04:10 -18.79689 47.47871 4168 ft 165 kts 99°
2026-04-23 04:10 -18.79901 47.49228 4475 ft 194 kts 100°
2026-04-23 04:10 -18.80113 47.50632 5268 ft 194 kts 101°
2026-04-23 04:10 -18.80324 47.52032 5988 ft 191 kts 101°
2026-04-23 04:11 -18.80528 47.53451 6393 ft 205 kts 100°
2026-04-23 04:11 -18.80744 47.55005 6633 ft 223 kts 94°
2026-04-23 04:11 -18.80364 47.56699 6736 ft 256 kts 62°
2026-04-23 04:11 -18.79050 47.58049 7133 ft 277 kts 33°
2026-04-23 04:12 -18.77246 47.58888 7642 ft 289 kts 25°
2026-04-23 04:12 -18.75363 47.59662 8391 ft 290 kts 24°
2026-04-23 04:12 -18.73439 47.60429 9058 ft 298 kts 23°
2026-04-23 04:12 -18.71511 47.61234 9876 ft 299 kts 25°
2026-04-23 04:13 -18.69587 47.62084 10531 ft 304 kts 25°
2026-04-23 04:13 -18.67577 47.62981 10816 ft 326 kts 25°
2026-04-23 04:13 -18.65409 47.63955 11014 ft 351 kts 25°
2026-04-23 04:13 -18.63085 47.65000 11261 ft 373 kts 25°
2026-04-23 04:14 -18.60666 47.66088 11861 ft 383 kts 25°
2026-04-23 04:14 -18.58197 47.67196 12664 ft 388 kts 25°
2026-04-23 04:14 -18.55707 47.68310 13596 ft 390 kts 25°
2026-04-23 04:14 -18.53197 47.69433 14421 ft 394 kts 25°
2026-04-23 04:15 -18.50653 47.70571 15103 ft 401 kts 25°
2026-04-23 04:15 -18.48071 47.71729 15777 ft 406 kts 25°
2026-04-23 04:15 -18.42884 47.74227 17175 ft 414 kts 31°
2026-04-23 04:16 -18.40362 47.75721 17854 ft 418 kts 33°
2026-04-23 04:16 -18.37842 47.77287 18502 ft 423 kts 33°
2026-04-23 04:16 -18.35302 47.78880 19080 ft 427 kts 33°
2026-04-23 04:16 -18.32763 47.80461 19630 ft 432 kts 33°
2026-04-23 04:17 -18.30119 47.82087 20191 ft 437 kts 33°
2026-04-23 04:17 -18.27512 47.83673 20718 ft 442 kts 33°
2026-04-23 04:17 -18.24830 47.85293 21267 ft 446 kts 33°
2026-04-23 04:17 -18.22117 47.86923 21780 ft 451 kts 32°
2026-04-23 04:18 -18.19374 47.88567 22313 ft 456 kts 32°
2026-04-23 04:18 -18.16608 47.90225 22827 ft 460 kts 32°
2026-04-23 04:18 -18.13814 47.91897 23319 ft 465 kts 32°
2026-04-23 04:18 -18.10991 47.93588 23802 ft 469 kts 32°
2026-04-23 04:19 -18.08144 47.95290 24195 ft 473 kts 32°
2026-04-23 04:19 -18.05272 47.97008 24625 ft 477 kts 32°
2026-04-23 04:19 -18.02380 47.98738 25070 ft 480 kts 32°
2026-04-23 04:19 -17.99471 48.00478 25514 ft 483 kts 32°
2026-04-23 04:20 -17.96553 48.02223 25941 ft 486 kts 32°
2026-04-23 04:20 -17.93605 48.03984 26335 ft 490 kts 32°
2026-04-23 04:20 -17.90630 48.05762 26752 ft 493 kts 32°
2026-04-23 04:20 -17.87638 48.07548 27185 ft 496 kts 32°
2026-04-23 04:21 -17.84626 48.09346 27601 ft 500 kts 32°
2026-04-23 04:21 -17.81596 48.11154 27990 ft 503 kts 32°
2026-04-23 04:21 -17.78543 48.12975 28392 ft 506 kts 32°
2026-04-23 04:21 -17.75466 48.14809 28773 ft 510 kts 32°
2026-04-23 04:22 -17.72374 48.16652 29153 ft 513 kts 32°
2026-04-23 04:22 -17.69268 48.18502 29523 ft 515 kts 32°
2026-04-23 04:22 -17.66137 48.20367 29882 ft 518 kts 32°
2026-04-23 04:22 -17.62997 48.22235 30234 ft 520 kts 32°
2026-04-23 04:23 -17.59850 48.24107 30619 ft 520 kts 32°
2026-04-23 04:23 -17.56705 48.25977 31072 ft 519 kts 32°
2026-04-23 04:23 -17.53569 48.27840 31545 ft 517 kts 32°
2026-04-23 04:23 -17.50449 48.29693 32041 ft 515 kts 32°
2026-04-23 04:24 -17.47339 48.31539 32524 ft 513 kts 32°
2026-04-23 04:24 -17.44239 48.33380 32952 ft 512 kts 33°
2026-04-23 04:24 -17.41143 48.35219 33373 ft 511 kts 33°
2026-04-23 04:24 -17.38057 48.37049 33802 ft 510 kts 33°
2026-04-23 04:25 -17.35016 48.38853 34213 ft 508 kts 33°
2026-04-23 04:25 -17.31944 48.40674 34585 ft 507 kts 33°
2026-04-23 04:25 -17.28877 48.42492 34918 ft 506 kts 32°
2026-04-23 04:25 -17.25804 48.44314 35044 ft 511 kts 32°
2026-04-23 04:26 -17.22707 48.46150 35082 ft 512 kts 32°
2026-04-23 04:26 -17.16537 48.49799 35077 ft 506 kts 32°
2026-04-23 04:27 -17.10430 48.53409 35080 ft 504 kts 32°
2026-04-23 04:27 -17.04334 48.57013 35088 ft 504 kts 32°
2026-04-23 04:28 -16.95176 48.62420 35078 ft 505 kts 32°
2026-04-23 04:28 -16.89059 48.66030 35090 ft 506 kts 32°